Regional Weather Roundup
Issued by NWS Sterling, VA

Current Version | Previous Version | Text Only | Print | Product List | Glossary On
Versions: 1 2 3 4 5 6 7 8 9 10 11 12 13 14 15 16 17 18 19 20 21 22 23 24 25 26 27 28 29 30 31 32 33 34 35 36 37 38 39 40 41 42 43 44 45 46 47 48 49 50
000
ASUS41 KLWX 230411
RWRLWX

REGIONAL WEATHER ROUNDUP
NATIONAL WEATHER SERVICE BALTIMORE MD/WASHINGTON DC
1100 PM EST FRI FEB 22 2019

Note: "FAIR" indicates few or no clouds below 12,000 feet
with no significant weather and/or obstructions to visibility.
 TC=TEMPERATURE CELSIUS

 * =Non NWS site. Station does not report precipitation (e.g. rain,
    snow, etc.), thunder, or fog.

DCZ001-MDZ009-015-VAZ040>042-051-053>054-230500-
WASHINGTON METRO

CITY           SKY/WX    TMP DP  RH WIND       PRES   REMARKS
WASHINGTON NAT CLOUDY    44  32  62 NE3       30.45S
DULLES         CLOUDY    36  30  79 CALM      30.44S
ANDREWS AFB    FAIR      38  31  75 CALM      30.43S
FT BELVOIR     FAIR      39  33  77 CALM      30.44S
QUANTICO       FAIR      43  34  70 CALM      30.45S
COLLEGE PARK*  FAIR      37  32  80 CALM      30.44F
LEESBURG*      FAIR      37  32  81 CALM      30.45S
MANASSAS*      FAIR      37  34  89 CALM      30.45R
GAITHERSBURG*  FAIR      36  30  79 CALM      30.44S

$$

MDZ006>007-011-014-230500-
BALTIMORE METRO

CITY           SKY/WX    TMP DP  RH WIND       PRES   REMARKS
BWI AIRPORT    CLOUDY    40  27  59 CALM      30.44S
MD SCIENCE CTR   N/A     44  26  49 MISG      30.45S
MARTIN STATE   FAIR      37  32  81 CALM      30.46F
ANNAPOLIS      FAIR      41  33  73 CALM      30.45S
FORT MEADE*    FAIR      34  30  86 CALM      30.47S

$$

MDZ012-015-019>023-230500-
MARYLAND EASTERN SHORE

CITY           SKY/WX    TMP DP  RH WIND       PRES   REMARKS
OCEAN CITY     FAIR      40  36  86 CALM      30.44F
SALISBURY      FAIR      41  37  86 CALM      30.43F
BAY BRIDGE AP* FAIR      39  32  75 CALM      30.45S
CAMBRIDGE*     CLEAR     41  34  75 CALM      30.45S
EASTON*        FAIR      40  32  72 CALM      30.49R

$$

MDZ017>025-230500-
SOUTHERN MARYLAND

CITY           SKY/WX    TMP DP  RH WIND       PRES   REMARKS
PATUXENT RIVER CLOUDY    43  32  65 CALM      30.45R
ST INIGOES     MOCLDY    44  34  67 CALM      30.44R
LEONARDTOWN*   FAIR      39  32  75 CALM      30.46R

$$

MDZ003>005-230500-
NORTH CENTRAL MARYLAND

CITY           SKY/WX    TMP DP  RH WIND       PRES   REMARKS
FREDERICK*     FAIR      36  34  93 CALM      30.48S
HAGERSTOWN APT FAIR      39  25  57 CALM      30.43R
WESTMINSTER*   FAIR      36  27  69 CALM      30.43S

$$

MDZ501>502-230500-
WESTERN MARYLAND

CITY           SKY/WX    TMP DP  RH WIND       PRES   REMARKS
OAKLAND*       FAIR      32  23  69 SE10      30.30F WCI  24
CUMBERLAND*    FAIR      34  29  83 NE6       30.45F WCI  29

$$

VAZ025>031-230500-
SHENANDOAH VALLEY

CITY           SKY/WX    TMP DP  RH WIND       PRES   REMARKS
WINCHESTER*    FAIR      34  30  86 CALM      30.44S
FRONT ROYAL*   FAIR      36  32  87 MISG      30.42S
LURAY*         FAIR      37  34  87 CALM      30.42S
NEW MARKET*    FAIR      36  33  90 CALM      30.41S
WAYNESBORO*    CLOUDY    40  38  95 CALM      30.41R

$$

WVZ021-048>050-054>055-230500-
EASTERN WEST VIRGINIA PANHANDLE

CITY           SKY/WX    TMP DP  RH WIND       PRES   REMARKS
MARTINSBURG    FAIR      36  29  75 CALM      30.42S

$$

VAZ036>039-050-230500-
CENTRAL FOOTHILLS

CITY           SKY/WX    TMP DP  RH WIND       PRES   REMARKS
CHARLOTTESVILL CLOUDY    44  33  65 CALM      30.43F
CULPEPER*      FAIR      39  33  78 CALM      30.46S
ORANGE*        FAIR      39  34  81 CALM      30.43F
GORDONSVILLE*  MOCLDY    41  39  92 CALM      30.43S
WARRENTON*     FAIR      38  32  81 CALM      30.44F

$$

VAZ055>057-230500-
NORTH AND CENTRAL PIEDMONT

CITY           SKY/WX    TMP DP  RH WIND       PRES   REMARKS
FREDERICKSBRG* FAIR      44  34  67 CALM      30.44F
STAFFORD*      FAIR      41  35  80 CALM      30.48F

$$

NCZ024-NYZ072-PAZ021-071-VAZ022-071-230500-
OTHER REGIONAL OBSERVATIONS

CITY           SKY/WX    TMP DP  RH WIND       PRES   REMARKS
NEW YORK CITY  FAIR      37  22  54 MISG      30.47R
PHILADELPHIA   CLOUDY    40  23  50 NE6       30.46R
PITTSBURGH     CLOUDY    35  25  66 NE5       30.36F WCI  31
ROANOKE        LGT RAIN  40  38  93 SE5       30.42F FOG
RICHMOND       LGT RAIN  43  40  89 S3        30.45R
RALEIGH        LGT RAIN  42  40  92 NE9       30.40S

$$

ANZ530>537-230500-
MARINE OBSERVATIONS

STATION/POSITION TIME  TEMP    WIND        PRES
                       AIR SEA DIR/SP/G
                 (UTC) (F)     (DEG/KT/KT) (MB)
THOMAS PT LIGHT  0400   41 39  340/  2/  3 1032.1R
BALT KEY BRIDGE  0336   42        CALM     1031.2F
COVE POINT       0336   41     360/  5/  6   N/A
LEWISETTA        0336   43 41  350/  2/  2 1031.0R
SOLOMONS ISLAND  0336   42 40  330/  1/  2 1030.8R
PINEY POINT      0336          360/  1/  2   N/A

$$





USA.gov is the U.S. government's official web portal to all federal, state and local government web resources and services.